Regional Weather Roundup
Issued by NWS San Diego, CA

Home | Current Version | Previous Version | Text Only | Print | Product List | Glossary On
Versions: 1 2 3 4 5 6 7 8 9 10 11 12 13 14 15 16 17 18 19 20 21 22 23 24 25 26 27 28 29 30 31 32 33 34 35 36 37 38 39 40 41 42 43 44 45 46 47 48 49 50
000
ASUS46 KSGX 210304
RWRSGX

SAN DIEGO HOURLY WEATHER ROUNDUP
NATIONAL WEATHER SERVICE SAN DIEGO CA
800 PM PDT FRI OCT 20 2017

NOTE: "FAIR" INDICATES FEW OR NO CLOUDS BELOW 12,000 FEET WITH NO
SIGNIFICANT WEATHER AND/OR OBSTRUCTIONS TO VISIBILITY.

CAZ042-043-060-061-PZZ750-775-210400-

GREATER SAN DIEGO AREA

CITY           SKY/WX    TMP DP  RH WIND       PRES   REMARKS
SAN DIEGO AP   MOCLDY    66  53  63 W8        29.97R
NATIONAL CITY    N/A     65  57  74 W3        29.99R
CHULA VISTA      N/A     65  58  78 W2        29.88R
IMPERIAL BEACH PTCLDY    64  55  72 W12       29.97R
BROWN FIELD    MOCLDY    63  56  78 W9        29.96S
MIRAMAR MCAS   MOCLDY    65  56  72 SW3       29.96R
MONTGOMERY FLD MOCLDY    66  54  65 SW8       29.96R

$$

NORTH SAN DIEGO COUNTY

CITY           SKY/WX    TMP DP  RH WIND       PRES   REMARKS
CAMP PENDLETON MOCLDY    65  59  81 S3        29.93S
OCEANSIDE AP   CLOUDY    66  58  75 SW5       29.92S
OCEANSIDE HBR    N/A     66  59  78 CALM      29.95S
VISTA            N/A     63  57  81 CALM      29.90S
CARLSBAD       MOCLDY    64  57  78 SW5       29.93S
DEL MAR          N/A     64  57  78 CALM      29.96S
LA JOLLA SCRIP   N/A     64  58  80 SW5       29.94S
FALLBROOK        N/A     63  62  96 S1        29.94R
ESCONDIDO        N/A     63  57  81 SW1       29.95R
SAN MARCOS       N/A     62  56  81 CALM      29.95S
POWAY            N/A     61  55  81 CALM      29.97R

$$

EAST SAN DIEGO COUNTY

CITY           SKY/WX    TMP DP  RH WIND       PRES   REMARKS
RAMONA         MOCLDY    58  55  90 SW9       29.96R
SANTEE LAKES     N/A     62  55  79 CALM      29.94R
LA MESA          N/A     61  55  78 CALM      29.89R
JAMUL            N/A     59  54  84 CALM      29.96S
DESCANSO N       N/A     49  48  94 W3        29.89R
CAMPO            N/A     54  49  83 W12       29.95R

$$

ORANGE COUNTY AND THE LOS ANGELES BASIN

CITY           SKY/WX    TMP DP  RH WIND       PRES   REMARKS
JOHN WAYNE AP  MOCLDY    66  59  78 S7        29.92R
LAGUNA BEACH     N/A     66  60  80 CALM      29.88R
LAKE FOREST FR   N/A     60  53  76 CALM      29.83R
HUNTINGTON BCH   N/A     65  58  78 W8        29.92F
LOS ALAMITOS   CLEAR     64  55  73 CALM      29.91R
FULLERTON      PTCLDY    66  56  70 S6        29.90S
LONG BEACH     CLEAR     66  54  65 SW5       29.91S
L.A. AP        PTCLDY    66  57  72 E7        29.90R
L.A. DOWNTOWN  CLEAR     67  55  65 E5        29.90R

$$

THE INLAND EMPIRE

CITY           SKY/WX    TMP DP  RH WIND       PRES   REMARKS
CORONA         CLEAR     62  55  77 W8        29.91R
CHINO          PTCLDY    64  54  69 SW14      29.92R
ONTARIO        PTCLDY    62  54  74 W10       29.91R
RIVERSIDE AP   CLEAR     62  55  77 W7        29.91R
MORENO VALLEY    N/A     61  57  85 SE2       28.04R
MARCH ARB      CLEAR     60  55  84 NW8       29.92R
PERRIS           N/A     61  55  80 S3          N/A
HEMET EAST       N/A     58  52  82 CALM      29.96S
FRENCH VALLEY  FAIR      59  55  88 S9        29.94R
TEMECULA         N/A     61  58  88 SW6       29.97R

$$

SAN BERNARDINO AND RIVERSIDE COUNTY MOUNTAINS

CITY           SKY/WX    TMP DP  RH WIND       PRES   REMARKS
BIG BEAR AP    CLEAR     43  28  56 SW6       30.01R

$$

SOUTHERN DESERT INCLUDING THE COACHELLA VALLEY

CITY           SKY/WX    TMP DP  RH WIND       PRES   REMARKS
PALM SPRINGS   CLEAR     77  45  32 VRB7      29.77R
THOUSAND PALMS   N/A     74  50  43 NW22      29.72R
PALM DESERT      N/A     76  48  37 CALM      31.04S
THERMAL        CLEAR     76  51  41 N18G31    29.72R
BLYTHE         CLEAR     74  50  42 S10       29.75R
IMPERIAL AP    PTCLDY    71  49  45 W23G30    29.78R
EL CENTRO NAS  PTCLDY    72  47  40 W30       29.81R
MEXICALI       PTCLDY    73  45  35 W22       29.78R

$$

UPPER DESERT

CITY           SKY/WX    TMP DP  RH WIND       PRES   REMARKS
VICTORVILLE AP CLEAR     52  36  54 W29G36    29.90R
HESPERIA         N/A     54  39  56 N3        30.01R
PALMDALE       CLEAR     54  38  54 W20G29    29.99R
LANCASTER      CLEAR     53  37  54 W21       29.99R
DAGGETT        CLEAR     58  40  51 W24G30    29.90R
29 PALMS N     CLEAR     67  39  35 NW22G31   29.86F
NEEDLES        MOCLDY    78  33  19 NW13      29.73R

$$

REGIONAL REPORTS

CITY           SKY/WX    TMP DP  RH WIND       PRES   REMARKS
SANTA BARBARA  CLEAR     61  45  55 W22G31    29.95R
SANDBERG       MOCLDY    46  38  73 N7G35     30.03R
LAS VEGAS NV   MOCLDY    74  26  16 NW15G22   29.76R
PHOENIX AZ     PTCLDY    78  46  32 W6        29.73F
TIJUANA        MOCLDY    63  54  72 W5        29.99
ENSENADA NW      N/A     64  32  30 N6        29.96R

$$

OFFSHORE ISLANDS

CITY           SKY/WX    TMP DP  RH WIND       PRES   REMARKS
CATALINA ARPT  CLEAR     57  55  93 W14       29.95S
SAN NICOLAS IS CLEAR     57  55  93 NW33G46   29.97R

$$

MARINE AND OFFSHORE BUOY REPORTS

STATION/POSITION SKY/WX   TEMP    WIND        PRES    VSBY  SWELL
                          AIR SEA DIR/SP/G                  HT/PER/DIR
                          (F)     (DEG/KT/KT) (MB)    (MI)  (FT/S/D)
TANNER BANKS               63 64  330/ 27/ 33 1014.3         15/340/16
S CLEMENTE BASIN           65 69  290/ 21/ 25 1014.0          5/300/19
SAN NICOLAS IS.               63                N/A          10/310/15
SO. S. ROSA ISLA           60 60  310/ 29/ 39 1015.5R        10/300/17
W. S. BARBARA CH           59 58  320/ 23/ 31 1016.6R        11/290/16
M. S. BARBARA CH           62 63  300/ 29/ 37 1014.1R         3/130/17
S. MONICA BASIN               69  300/ 25/ 33 1012.1R         2/160/11
S PEDRO CHANNEL               67                N/A           2/270/18
CMP PENDLETON NS              69                N/A           2/200/14
OCEANSIDE OFFSHR              69                N/A           2/190/14
TORREY PINES OTR              69                N/A           3/260/20
SAN DIEGO BAY                 73              1015.0
POINT LOMA SOUTH              70                N/A           5/280/18

$$





USA.gov is the U.S. government's official web portal to all federal, state and local government web resources and services.